WB0RXX Weather Reports


Display with metric or nautical units.
time (UTC)temp
F
wind
direction
speed
MPH
gust
MPH
rain 1hr
in
rain 24hr
in
rain mn
in
humidity
%
barometer
mb
20260831041003 77 150 1.0 1.0 0.00 0.00 0.00 91 1006.6
20260831023003 81 159 5.0 6.0 0.00 0.00 0.00 86 1006.1
20260831021003 81 148 9.0 12.0 0.00 0.00 0.00 86 1005.6
20260831014004 80 118 3.0 5.0 0.00 0.00 0.00 87 1005.5
20260831013004 81 123 6.0 12.0 0.00 0.00 0.00 86 1005.5
20260831012003 81 120 3.0 5.0 0.00 0.00 0.00 86 1005.5
20260831011003 82 114 6.0 11.0 0.00 0.00 0.00 85 1005.6
20260831005003 83 99 4.0 8.0 0.00 0.00 0.00 83 1005.8
20260831001004 84 79 4.0 7.0 0.00 0.00 0.00 82 1006.1
20260831000006 84 81 3.0 7.0 0.00 0.00 0.00 82 1006.0
20260830233004 85 116 4.0 4.0 0.00 0.00 0.00 80 1006.0
20260830231003 85 104 4.0 4.0 0.00 0.00 0.00 80 1006.1
20260830225004 85 111 6.0 8.0 0.00 0.00 0.00 79 1006.2
20260830222004 86 112 3.0 4.0 0.00 0.00 0.00 78 1006.3
20260830221003 86 139 9.0 11.0 0.00 0.00 0.00 78 1006.3
20260830204005 85 139 8.0 10.0 0.00 0.00 0.00 77 1006.6
20260830203003 85 140 9.0 13.0 0.00 0.00 0.00 77 1006.8
20260830202006 84 145 8.0 12.0 0.00 0.00 0.00 80 1006.9
20260830200004 84 116 6.0 8.0 0.00 0.00 0.00 78 1007.0
20260830192003 82 126 6.0 11.0 0.00 0.00 0.00 81 1007.5
20260830190004 81 121 4.0 6.0 0.00 0.00 0.00 83 1007.7
20260830185006 79 137 6.0 8.0 0.00 0.00 0.00 84 1007.8
20260830184004 80 152 6.0 9.0 0.00 0.00 0.00 82 1007.9
20260830182004 80 131 5.0 10.0 0.00 0.00 0.00 81 1007.8
20260830173004 76 124 9.0 12.0 0.00 0.00 0.00 87 1008.4
20260830162004 73 127 5.0 10.0 0.00 0.00 0.00 90 1008.6
20260830153004 71 104 4.0 7.0 0.00 0.00 0.00 92 1008.7
20260830151004 71 85 4.0 10.0 0.00 0.00 0.00 92 1008.6
20260830143005 70 78 4.0 7.0 0.00 0.00 0.00 94 1008.3
20260830142003 70 88 3.0 5.0 0.00 0.00 0.00 94 1008.3
20260830140003 69 77 3.0 8.0 0.00 0.00 0.00 95 1008.1
20260830132003 68 91 5.0 9.0 0.00 0.00 0.00 95 1008.4
20260830131003 68 90 3.0 7.0 0.00 0.00 0.00 96 1008.1
20260830124003 68 110 2.0 3.0 0.00 0.00 0.00 96 1008.3
20260830122003 67 89 1.0 2.0 0.00 0.00 0.00 96 1008.5
20260830120004 68 108 1.0 3.0 0.00 0.00 0.00 96 1008.5
20260830114003 68 91 3.0 5.0 0.00 0.00 0.00 96 1008.2
20260830112003 68 75 2.0 5.0 0.00 0.00 0.00 96 1008.2
20260830105005 68 109 0.0 3.0 0.00 0.00 0.00 96 1008.2
20260830101003 68 76 2.0 4.0 0.00 0.00 0.00 96 1008.5
20260830095004 68 103 1.0 3.0 0.00 0.00 0.00 96 1008.7
20260830092003 68 146 3.0 3.0 0.00 0.00 0.00 95 1008.7
20260830090004 68 125 1.0 3.0 0.00 0.00 0.00 95 1008.6
20260830085004 68 74 2.0 2.0 0.00 0.00 0.00 95 1008.0
20260830083005 68 96 1.0 5.0 0.00 0.00 0.00 94 1008.3
20260830081003 69 110 1.0 3.0 0.00 0.01 0.00 94 1008.2
20260830075004 69 53 4.0 5.0 0.00 0.07 0.00 93 1008.3
20260830074004 69 80 1.0 2.0 0.00 0.08 0.00 93 1008.2
20260830072006 69 80 3.0 6.0 0.00 0.09 0.00 93 1008.2
20260830064005 70 106 1.0 2.0 0.00 0.09 0.00 92 1009.2
20260830060005 70 83 0.0 2.0 0.00 0.09 0.00 91 1009.3
20260830053004 71 110 3.0 6.0 0.00 0.09 0.00 91 1008.8
20260830052005 71 134 5.0 8.0 0.00 0.09 0.00 91 1008.6
20260830051003 71 114 3.0 5.0 0.00 0.09 0.00 90 1009.0
20260830045003 71 98 3.0 7.0 0.00 0.09 0.09 89 1009.1